KUIPER-00226

Last updated on Sun Mar 15 2026 00:02:06 GMT+0000 (Coordinated Universal Time)

1 67785U 26030X 26073.06618320 .00227464 00000+0 73304-2 0 9991 2 67785 51.8821 198.8802 0018360 81.4693 278.8371 15.30600799 5758
UTC large
Height (km)
Speed (km/s)
/
Latitude / Longitude
Inclination (degrees)
Orbital Period (minutes)
Azimuth
Elevation
Range (km)
Doppler Factor

Next 0 passes for location: London (51.5072 / 0.1276)

Sorry there are no passes over London.